AirNav   Pilot Hours Calculator
 
 1074 users online  

KWEA Parker County Airport
Weatherford, Texas, USA

GOING TO WEATHERFORD?


FAA INFORMATION EFFECTIVE 09 SEPTEMBER 2021

Location

FAA Identifier: WEA
Lat/Long: 32-44-46.6321N 097-40-56.8279W
32-44.777202N 097-40.947132W
32.7462867,-97.6824522
(estimated)
Elevation: 991.2 ft. / 302.1 m (surveyed)
Variation: 05E (2010)
From city: 5 miles E of WEATHERFORD, TX
Time zone: UTC -5 (UTC -6 during Standard Time)
Zip code: 76087

Airport Operations

Airport use: Open to the public
Activation date: 01/1961
Control tower: no
ARTCC: FORT WORTH CENTER
FSS: FORT WORTH FLIGHT SERVICE STATION
NOTAMs facility: FTW (NOTAM-D service available)
Attendance: 0800-1800
Wind indicator: lighted
Segmented circle: no
Lights: SS-SR

Airport Communications

CTAF/UNICOM: 122.7
REGIONAL APPROACH: 135.975
REGIONAL DEPARTURE: 135.975
DODJE STAR: 125.2 125.9
LIKES STAR: 125.8 ;SOUTH 135.975 ;NORTH
MOTZA STAR: 118.1 ;SOUTH 125.8 ;NORTH
REEKO STAR: 125.2
SANGR STAR: 124.3
SASIE STAR: 124.3
SLUGG STAR: 125.8 ;SOUTH 135.975 ;NORTH
WESAT STAR: 118.1 ;SOUTH 125.8 ;NORTH
WX ASOS at FTW (17 nm E): PHONE 817-740-3346
WX ASOS at MWL (19 nm W): 135.075 (940-325-2457)
WX AWOS-3 at GDJ (19 nm S): 118.925 (817-573-7514)

Nearby radio navigation aids

VOR radial/distance  VOR name  Freq  Var
MQPr077/15.9MILLSAP VORTAC117.7009E
FUZr245/26.8RANGER VORTAC115.7006E
TTTr251/33.2MAVERICK VOR/DME113.1006E

Airport Services

Fuel available: 100LL
100LL:FUEL AVBL 24 HRS SELF SERVE.
Parking: hangars and tiedowns
Bottled oxygen: NONE
Bulk oxygen: NONE

Runway Information

Runway 17/35

Dimensions: 2892 x 40 ft. / 881 x 12 m
Surface: asphalt, in good condition
Weight bearing capacity: 
Single wheel: 7.5
Runway edge lights: low intensity
RWY 17/35 NSTD DSPLCD THLD LIGHTS, SINGLE GREEN LIGHT EACH SIDE OF RWY.
Operational restrictions: RESTRICTED TO ACFT 7500 LBS OR LESS.
RUNWAY 17  RUNWAY 35
Latitude: 32-45.015632N32-44.538772N
Longitude: 097-40.945290W097-40.948973W
Elevation: 988.6 ft.982.6 ft.
Traffic pattern: leftleft
Runway heading: 175 magnetic, 180 true355 magnetic, 000 true
Displaced threshold: 220 ft.no
Markings: basic, in good conditionbasic, in good condition
Touchdown point: yes, no lightsyes, no lights
Obstructions: 38 ft. tree, 515 ft. from runway, 55 ft. left of centerline, 8:1 slope to clear
5 FT FENCE 40 FT FM THLD 120 FT R OF CNTRLN; 20 FT DROP-OFF 10 FT FROM THLD 0B.
40 ft. trees, 396 ft. from runway, 125 ft. right of centerline, 4:1 slope to clear
APCH SLOPE 21:1 AT DSPLCD THLD OVR 38 FT TREE 820 FT FM THLD 125 FT R OF CNTRLN.

Airport Ownership and Management from official FAA records

Ownership: Privately-owned
Owner: PARKER COUNTY AIRPORT HANGARS ASSOC
4607 FOREST HILL CIRCLE
FORT WORTH, TX 76140
Phone 817-599-9210
Manager: BRET PRIVITT
4607 FOREST HILL CIRCLE
FORT WORTH, TX 76140
Phone (817) 822-7205

Airport Operational Statistics

Aircraft based on the field: 86
Single engine airplanes: 80
Multi engine airplanes: 6
    
Aircraft operations: avg 137/day *
75% local general aviation
25% transient general aviation
<1% military
* for 12-month period ending 31 December 2018

Additional Remarks

FOR CD CTC REGIONAL APCH AT 972-615-2799.
WILDLIFE INVOF APRT.
TWY ON WEST SIDE OF RWY CLSD TO PUBLIC INDEFLY.
ARPT CLSD TO TRANSIENT STUDENT TFC.
CLOSED TO ULTRALIGHT TRAFFIC.

Instrument Procedures

NOTE: All procedures below are presented as PDF files. If you need a reader for these files, you should download the free Adobe Reader.

NOT FOR NAVIGATION. Please procure official charts for flight.
FAA instrument procedures published for use from 09 September 2021 at 0901Z to 07 October 2021 at 0900Z.

 
STARs - Standard Terminal Arrivals
LIKES THREE (RNAV)   download (211KB)
MOTZA ONE   2 pages: [1] [2] (493KB)
REEKO THREE (RNAV)   download (214KB)
SASIE SIX   2 pages: [1] [2] (512KB)
TRUUK TWO (RNAV)   download (214KB)
WESAT TWO (RNAV)   download (207KB)
 
IAPs - Instrument Approach Procedures
VOR/DME-A   download (157KB)
 
Departure Procedures
GARLAND ONE   2 pages: [1] [2] (340KB)
KINGDOM NINE   2 pages: [1] [2] (370KB)
KUSSO EIGHT (RNAV)   2 pages: [1] [2] (320KB)
SWABR EIGHT (RNAV)   2 pages: [1] [2] (320KB)
NOTE: Special Take-Off Minimums/Departure Procedures apply   download (113KB)

Other nearby airports with instrument procedures:

50F - Bourland Field Airport (11 nm SE)
KNFW - Fort Worth Naval Air Station JRB (Carswell Field) Airport (12 nm E)
KFTW - Fort Worth Meacham International Airport (17 nm E)
4T2 - Kenneth Copeland Airport (17 nm NE)
KMWL - Mineral Wells Regional Airport (19 nm W)
KGDJ - Granbury Regional Airport (19 nm S)
 
Loc | Ops | Rwys | IFR | FBO | Links
Com | Nav | Svcs | Stats | Notes

City of Fort Worth
 
Area around KWEA (Parker County Airport)
 
Road maps at: MapQuest Bing Google
 
Aerial photo
WARNING: Photo may not be current or correct
Aerial photo of KWEA (Parker County Airport)
Photo by Kim Fuller
Photo taken 06-Apr-2017
looking south.

Do you have a better or more recent aerial photo of Parker County Airport that you would like to share? If so, please send us your photo.

 
Sectional chart

 
Airport distance calculator
Flying to Parker County Airport? Find the distance to fly.

From to KWEA

Sunrise and sunset
Times for 21-Sep-2021
 Local
(UTC-5)
 Zulu
(UTC)
Morning civil twilight06:5511:55
Sunrise07:1912:19
Sunset19:2800:28
Evening civil twilight19:5300:53

Current date and time
Zulu (UTC)  22-Sep-2021 01:19:59
Local (UTC-5)  21-Sep-2021 20:19:59
 
METAR
KNFW 
12nm E 
220052Z 36011KT 10SM BKN250 27/07 A3021 RMK AO2 SLP210 T02670067 $
KFTW 
17nm E 
220053Z 36012KT 10SM CLR 24/05 A3020 RMK AO2 SLP217 T02440050
KGDJ 
19nm S 
AWOS-3 118.925 817-573-7514
220055Z AUTO 36009G15KT 10SM CLR 26/05 A3022 RMK AO2 T02630049
KMWL 
20nm W 
220053Z AUTO 35007KT 10SM CLR 24/04 A3022 RMK AO2 SLP221 T02390044
KFWS 
22nm SE 
220055Z AUTO 35012G18KT 10SM CLR 26/03 A3020 RMK AO2 T02590041
KAFW 
23nm NE 
220053Z 36010KT 10SM BKN280 25/05 A3020 RMK AO2 SLP214 T02500050
TAF
KNFW 
12nm E 
2110/2207 17006KT 9999 FEW065 SCT100 QNH2988INS FM211200 VRB04KT 9999 VCTS SCT025CB BKN080 BKN150 QNH3000INS FM211600 36015G26KT 9999 SCT120 BKN250 QNH3015INS FM212200 36013G24KT 9999 FEW100 FEW250 QNH3020INS BECMG 2204/2206 VRB06KT 9999 SKC QNH2995INS AUTOMATED SENSOR METWATCH 2107 TIL 2111 T28/2109Z T23/2118Z AMD 1030 FN20046
KFTW 
17nm E 
212055Z 2121/2218 36020G30KT P6SM FEW150 SCT250 FM220300 01011KT P6SM FEW250
NOTAMs
Click for the latest NOTAMs
NOTAMs are issued by the DoD/FAA and will open in a separate window not controlled by AirNav.

 

 
 

FBO, Fuel Providers, and Aircraft Ground Support

  
 Business Name 
 
 Contact 
 
 Services / Description 
 
Fuel Prices
 
Comments
  
Chief Aero, LLC 817-599-9210
682-249-1755
[web site]
[email]
Airport management, Aviation fuel, Aircraft parking (ramp or tiedown), Hangars, Hangar leasing / sales, Pilots lounge / snooze room, Restrooms

More info about Chief Aero, LLC
Titan
100LL
SS $4.75 
 Updated 16-Sep-2021
 
   1 read write
SS=Self service
Update Fuel Prices
 

Would you like to see your business listed on this page?

 If your business provides an interesting product or service to pilots, flight crews, aircraft, or users of the Parker County Airport, you should consider listing it here.  To start the listing process, click on the button below
 
Add a business
 

Other Pages about Parker County Airport

www.parkercountyairport.com
 
Update a link
 
Copyright © AirNav, LLC. All rights reserved. Privacy Policy  Contact